Location: Gro�wechsungen
(51.4926°N, 10.6901°E)
Time: 08:18:46
(UTC+00:00)

SPOT 3 Rocket - Pass Details

Date: 30 January 2021
Orbit: 780 x 794 km, 98.7° (Epoch: 24 February)

Event Time Altitude Azimuth Distance (km) Brightness Sun altitude
Exits shadow 18:22:55 18° 23° (NNE) 1,851 5.2 -21.6°
Drops below altitude 10° 18:24:47 10° 6° (N) 2,352 5.9 -21.9°
Sets 18:27:30 0° 353° (N) 3,287 6.9 -22.4°
